Погода в Росс-он-Уай

Великобритания     51°54′54″N   2°34′54″W
темп.,
°C
ветер,
м/с
пор.,
м/с
влажн.,
%
обл.,
%
осадки,
мм/ч
давл.,
гПа
погр.,
м
25 июля, вс
вс2501:00+14ссв3888100 0.3 1009239
04:00+14с3789100 0.0 1009261
07:00+14с3689100 0.0 1009266
10:00+17ссв4573100 0.0 1009731
13:00+20ссв4462100 0.0 10091147
16:00+22ссз345893 0.0 10081383
19:00+20сз226999 0.1 100831
22:00+19ссз236399 0.0 100958
26 июля, пн
пн2601:00+14ссз22835 0.0 101014
04:00+12ссз118777 0.0 101010
07:00+14сз11810 0.0 101048
10:00+20з22660 0.0 1010634
13:00+23з335196 0.0 10101418
16:00+22зюз5565100 1.1 10091015
19:00+20з4779100 6.8 1009166
22:00+17юз2285100 0.2 100914
27 июля, вт
вт2701:00+15юз2294100 0.9 100952
04:00+14зюз2295100 2.4 100855
07:00+15ююз2388100 2.9 100890
10:00+17ююз338399 0.0 1008508
13:00+20зюз227141 0.7 1008740
16:00+20сз346655 2.4 10071044
19:00+15сз5994100 4.1 1008320
22:00+14сз389578 0.7 1009331
28 июля, ср
ср2801:00+11з36935 0.8 1010129
04:00+10юз2294100 0.0 100924
07:00+12ююз2491100 0.0 1010158
10:00+17юз576987 0.0 1010847
13:00+19юз7858100 0.2 10091655
16:00+19юз8105699 0.2 10081651
19:00+17юз6117193 0.2 10081197
22:00+13ююз4894100 2.1 1007347
29 июля, чт
чт2901:00+12ююз4796100 4.2 1007316
04:00+12юв1297100 4.1 1005122
07:00+12зюз159270 4.2 1005245
10:00+16зюз6967100 0.0 10051368
13:00+18з8115164 0.3 10052187
16:00+17з71055100 0.1 10061618
19:00+16зюз69645 0.3 10071274
22:00+13юз612776 0.1 1008466